Time,TemperatureF,DewpointF,PressureIn,WindDirection,WindDirectionDegrees,WindSpeedMPH,WindSpeedGustMPH,Humidity,HourlyPrecipIn,Conditions,Clouds,dailyrainin,SoftwareType,DateUTC
2013-10-10 00:11:00,58.6,51.0,30.08,SW,218,1.0,-999.0,77,-99.99,,,0.00,weatherlink.com 1.10,2013-10-10 04:11:00,
2013-10-10 00:26:00,58.4,51.0,30.08,SW,229,1.0,-999.0,76,-99.99,,,0.00,weatherlink.com 1.10,2013-10-10 04:26:00,
2013-10-10 00:41:00,58.4,51.0,30.08,SSW,206,2.0,-999.0,75,-99.99,,,0.00,weatherlink.com 1.10,2013-10-10 04:41:00,
2013-10-10 00:56:00,58.4,50.0,30.08,SSW,204,0.0,-999.0,74,-99.99,,,0.00,weatherlink.com 1.10,2013-10-10 04:56:00,
2013-10-10 01:11:00,58.3,50.0,30.08,SW,219,3.0,-999.0,73,-99.99,,,0.00,weatherlink.com 1.10,2013-10-10 05:11:00,
2013-10-10 01:26:00,58.1,49.0,30.08,SSW,208,1.0,-999.0,73,-99.99,,,0.00,weatherlink.com 1.10,2013-10-10 05:26:00,
2013-10-10 01:41:00,58.0,49.0,30.09,SW,222,0.0,-999.0,73,-99.99,,,0.00,weatherlink.com 1.10,2013-10-10 05:41:00,
2013-10-10 01:56:00,57.9,49.0,30.09,SSW,209,0.0,-999.0,72,-99.99,,,0.00,weatherlink.com 1.10,2013-10-10 05:56:00,
2013-10-10 02:11:00,57.9,49.0,30.09,SW,223,0.0,-999.0,72,-99.99,,,0.00,weatherlink.com 1.10,2013-10-10 06:11:00,
2013-10-10 02:26:00,57.8,49.0,30.09,SSW,210,2.0,-999.0,73,-99.99,,,0.00,weatherlink.com 1.10,2013-10-10 06:26:00,
2013-10-10 02:41:00,57.6,49.0,30.10,SSW,209,2.0,-999.0,73,-99.99,,,0.00,weatherlink.com 1.10,2013-10-10 06:41:00,
2013-10-10 02:56:00,57.6,49.0,30.11,SSE,148,0.0,-999.0,72,-99.99,,,0.00,weatherlink.com 1.10,2013-10-10 06:56:00,
2013-10-10 03:11:00,57.6,49.0,30.11,East,92,0.0,-999.0,72,-99.99,,,0.00,weatherlink.com 1.10,2013-10-10 07:11:00,
2013-10-10 03:26:00,57.4,48.0,30.12,ENE,67,0.0,-999.0,72,-99.99,,,0.00,weatherlink.com 1.10,2013-10-10 07:26:00,
2013-10-10 03:41:00,57.0,48.0,30.12,ENE,67,0.0,-999.0,73,-99.99,,,0.00,weatherlink.com 1.10,2013-10-10 07:41:00,
2013-10-10 03:56:00,56.7,48.0,30.12,ENE,67,0.0,-999.0,73,-99.99,,,0.00,weatherlink.com 1.10,2013-10-10 07:56:00,
2013-10-10 04:11:00,56.2,48.0,30.12,ENE,67,0.0,-999.0,74,-99.99,,,0.00,weatherlink.com 1.10,2013-10-10 08:11:00,
2013-10-10 04:26:00,55.9,48.0,30.12,ENE,71,0.0,-999.0,75,-99.99,,,0.00,weatherlink.com 1.10,2013-10-10 08:26:00,
2013-10-10 04:41:00,56.2,48.0,30.12,South,178,0.0,-999.0,74,-99.99,,,0.00,weatherlink.com 1.10,2013-10-10 08:41:00,
2013-10-10 04:56:00,56.8,48.0,30.12,South,190,0.0,-999.0,73,-99.99,,,0.00,weatherlink.com 1.10,2013-10-10 08:56:00,
2013-10-10 05:11:00,56.8,48.0,30.12,South,190,0.0,-999.0,73,-99.99,,,0.00,weatherlink.com 1.10,2013-10-10 09:11:00,
2013-10-10 05:26:00,56.9,48.0,30.12,South,190,0.0,-999.0,72,-99.99,,,0.00,weatherlink.com 1.10,2013-10-10 09:26:00,
2013-10-10 05:41:00,56.6,48.0,30.12,South,190,0.0,-999.0,73,-99.99,,,0.00,weatherlink.com 1.10,2013-10-10 09:41:00,
2013-10-10 05:56:00,56.4,48.0,30.12,South,190,0.0,-999.0,73,-99.99,,,0.00,weatherlink.com 1.10,2013-10-10 09:56:00,
2013-10-10 06:11:00,56.2,48.0,30.12,South,190,0.0,-999.0,73,-99.99,,,0.00,weatherlink.com 1.10,2013-10-10 10:11:00,
2013-10-10 06:26:00,55.9,48.0,30.12,NE,36,1.0,-999.0,74,-99.99,,,0.00,weatherlink.com 1.10,2013-10-10 10:26:00,
2013-10-10 06:41:00,55.8,48.0,30.12,SSW,202,0.0,-999.0,74,-99.99,,,0.00,weatherlink.com 1.10,2013-10-10 10:41:00,
2013-10-10 06:56:00,55.6,48.0,30.12,ENE,73,0.0,-999.0,75,-99.99,,,0.00,weatherlink.com 1.10,2013-10-10 10:56:00,
2013-10-10 07:11:00,55.4,48.0,30.13,NE,35,1.0,-999.0,75,-99.99,,,0.00,weatherlink.com 1.10,2013-10-10 11:11:00,
2013-10-10 07:26:00,55.2,47.0,30.13,ENE,69,0.0,-999.0,75,-99.99,,,0.00,weatherlink.com 1.10,2013-10-10 11:26:00,
2013-10-10 07:41:00,54.1,47.0,30.14,ENE,69,0.0,-999.0,78,-99.99,,,0.00,weatherlink.com 1.10,2013-10-10 11:41:00,
2013-10-10 07:56:00,53.0,47.0,30.14,ENE,69,0.0,-999.0,80,-99.99,,,0.00,weatherlink.com 1.10,2013-10-10 11:56:00,
2013-10-10 08:11:00,52.6,47.0,30.14,East,101,0.0,-999.0,80,-99.99,,,0.00,weatherlink.com 1.10,2013-10-10 12:11:00,
2013-10-10 08:26:00,52.9,47.0,30.14,East,98,0.0,-999.0,79,-99.99,,,0.00,weatherlink.com 1.10,2013-10-10 12:26:00,
2013-10-10 08:41:00,53.0,47.0,30.14,East,98,0.0,-999.0,80,-99.99,,,0.00,weatherlink.com 1.10,2013-10-10 12:41:00,
2013-10-10 08:56:00,54.0,47.0,30.14,East,98,0.0,-999.0,78,-99.99,,,0.00,weatherlink.com 1.10,2013-10-10 12:56:00,
2013-10-10 09:11:00,55.4,48.0,30.14,East,98,0.0,-999.0,75,-99.99,,,0.00,weatherlink.com 1.10,2013-10-10 13:11:00,
2013-10-10 09:26:00,56.8,48.0,30.14,ENE,72,1.0,-999.0,72,-99.99,,,0.00,weatherlink.com 1.10,2013-10-10 13:26:00,
2013-10-10 09:41:00,57.4,48.0,30.14,ENE,72,0.0,-999.0,71,-99.99,,,0.00,weatherlink.com 1.10,2013-10-10 13:41:00,
2013-10-10 09:56:00,58.4,48.0,30.14,ENE,72,1.0,-999.0,69,-99.99,,,0.00,weatherlink.com 1.10,2013-10-10 13:56:00,
2013-10-10 10:11:00,59.6,48.0,30.14,East,86,0.0,-999.0,66,-99.99,,,0.00,weatherlink.com 1.10,2013-10-10 14:11:00,
2013-10-10 10:26:00,61.1,48.0,30.14,East,87,0.0,-999.0,63,-99.99,,,0.00,weatherlink.com 1.10,2013-10-10 14:26:00,
2013-10-10 10:41:00,62.2,48.0,30.14,SSE,148,0.0,-999.0,61,-99.99,,,0.00,weatherlink.com 1.10,2013-10-10 14:41:00,
2013-10-10 10:56:00,63.2,49.0,30.14,SSE,148,1.0,-999.0,60,-99.99,,,0.00,weatherlink.com 1.10,2013-10-10 14:56:00,
2013-10-10 11:11:00,64.7,48.0,30.13,South,175,0.0,-999.0,56,-99.99,,,0.00,weatherlink.com 1.10,2013-10-10 15:11:00,
2013-10-10 11:26:00,65.6,48.0,30.13,South,175,0.0,-999.0,54,-99.99,,,0.00,weatherlink.com 1.10,2013-10-10 15:26:00,
2013-10-10 11:41:00,66.6,49.0,30.12,SE,133,1.0,-999.0,54,-99.99,,,0.00,weatherlink.com 1.10,2013-10-10 15:41:00,
2013-10-10 11:56:00,68.3,50.0,30.12,East,79,1.0,-999.0,53,-99.99,,,0.00,weatherlink.com 1.10,2013-10-10 15:56:00,
2013-10-10 12:11:00,68.8,50.0,30.12,SSE,150,1.0,-999.0,52,-99.99,,,0.00,weatherlink.com 1.10,2013-10-10 16:11:00,
2013-10-10 12:26:00,68.9,49.0,30.12,SSE,167,0.0,-999.0,50,-99.99,,,0.00,weatherlink.com 1.10,2013-10-10 16:26:00,
2013-10-10 12:41:00,69.4,50.0,30.11,SE,126,0.0,-999.0,50,-99.99,,,0.00,weatherlink.com 1.10,2013-10-10 16:41:00,
2013-10-10 12:56:00,69.5,48.0,30.11,South,180,2.0,-999.0,46,-99.99,,,0.00,weatherlink.com 1.10,2013-10-10 16:56:00,
2013-10-10 13:11:00,70.0,50.0,30.11,West,276,0.0,-999.0,49,-99.99,,,0.00,weatherlink.com 1.10,2013-10-10 17:11:00,
2013-10-10 13:26:00,70.7,48.0,30.11,South,180,3.0,-999.0,45,-99.99,,,0.00,weatherlink.com 1.10,2013-10-10 17:26:00,
2013-10-10 13:41:00,70.4,46.0,30.10,ESE,111,0.0,-999.0,42,-99.99,,,0.00,weatherlink.com 1.10,2013-10-10 17:41:00,
2013-10-10 13:56:00,71.0,45.0,30.09,SW,221,0.0,-999.0,40,-99.99,,,0.00,weatherlink.com 1.10,2013-10-10 17:56:00,
2013-10-10 14:11:00,71.0,46.0,30.09,SSW,203,0.0,-999.0,41,-99.99,,,0.00,weatherlink.com 1.10,2013-10-10 18:11:00,
2013-10-10 14:26:00,71.1,47.0,30.09,South,184,0.0,-999.0,42,-99.99,,,0.00,weatherlink.com 1.10,2013-10-10 18:26:00,
2013-10-10 14:41:00,71.0,47.0,30.09,SW,226,2.0,-999.0,42,-99.99,,,0.00,weatherlink.com 1.10,2013-10-10 18:41:00,
2013-10-10 14:56:00,70.9,46.0,30.08,NNW,333,0.0,-999.0,41,-99.99,,,0.00,weatherlink.com 1.10,2013-10-10 18:56:00,
2013-10-10 15:11:00,70.6,46.0,30.08,West,274,2.0,-999.0,42,-99.99,,,0.00,weatherlink.com 1.10,2013-10-10 19:11:00,
2013-10-10 15:26:00,70.7,46.0,30.08,WNW,290,0.0,-999.0,41,-99.99,,,0.00,weatherlink.com 1.10,2013-10-10 19:26:00,
2013-10-10 15:41:00,70.4,46.0,30.08,North,11,1.0,-999.0,42,-99.99,,,0.00,weatherlink.com 1.10,2013-10-10 19:41:00,
2013-10-10 15:56:00,70.6,47.0,30.07,West,276,0.0,-999.0,43,-99.99,,,0.00,weatherlink.com 1.10,2013-10-10 19:56:00,
2013-10-10 16:11:00,70.6,47.0,30.07,North,355,0.0,-999.0,43,-99.99,,,0.00,weatherlink.com 1.10,2013-10-10 20:11:00,
2013-10-10 16:26:00,70.4,46.0,30.06,SSW,192,2.0,-999.0,42,-99.99,,,0.00,weatherlink.com 1.10,2013-10-10 20:26:00,
2013-10-10 16:41:00,70.1,46.0,30.06,North,360,0.0,-999.0,43,-99.99,,,0.00,weatherlink.com 1.10,2013-10-10 20:41:00,
2013-10-10 16:56:00,69.7,47.0,30.06,NW,318,0.0,-999.0,44,-99.99,,,0.00,weatherlink.com 1.10,2013-10-10 20:56:00,
2013-10-10 17:11:00,69.3,47.0,30.06,SE,145,0.0,-999.0,45,-99.99,,,0.00,weatherlink.com 1.10,2013-10-10 21:11:00,
2013-10-10 17:26:00,69.3,48.0,30.06,NNW,342,0.0,-999.0,46,-99.99,,,0.00,weatherlink.com 1.10,2013-10-10 21:26:00,
2013-10-10 17:41:00,69.1,48.0,30.06,SW,231,0.0,-999.0,47,-99.99,,,0.00,weatherlink.com 1.10,2013-10-10 21:41:00,
2013-10-10 17:56:00,68.3,48.0,30.06,NE,52,0.0,-999.0,48,-99.99,,,0.00,weatherlink.com 1.10,2013-10-10 21:56:00,
2013-10-10 18:11:00,67.6,51.0,30.06,West,273,0.0,-999.0,55,-99.99,,,0.00,weatherlink.com 1.10,2013-10-10 22:11:00,
2013-10-10 18:26:00,66.7,50.0,30.07,SSW,202,0.0,-999.0,56,-99.99,,,0.00,weatherlink.com 1.10,2013-10-10 22:26:00,
2013-10-10 18:41:00,65.9,50.0,30.07,NW,325,0.0,-999.0,57,-99.99,,,0.00,weatherlink.com 1.10,2013-10-10 22:41:00,
2013-10-10 18:56:00,65.0,50.0,30.08,SSE,164,1.0,-999.0,58,-99.99,,,0.00,weatherlink.com 1.10,2013-10-10 22:56:00,
2013-10-10 19:11:00,64.0,49.0,30.08,SSW,192,0.0,-999.0,58,-99.99,,,0.00,weatherlink.com 1.10,2013-10-10 23:11:00,
2013-10-10 19:26:00,62.9,49.0,30.07,SW,234,0.0,-999.0,61,-99.99,,,0.00,weatherlink.com 1.10,2013-10-10 23:26:00,
2013-10-10 19:41:00,62.0,50.0,30.08,East,84,0.0,-999.0,64,-99.99,,,0.00,weatherlink.com 1.10,2013-10-10 23:41:00,
2013-10-10 19:56:00,61.2,50.0,30.08,East,82,0.0,-999.0,67,-99.99,,,0.00,weatherlink.com 1.10,2013-10-10 23:56:00,
2013-10-10 20:11:00,60.4,51.0,30.09,ESE,115,0.0,-999.0,71,-99.99,,,0.00,weatherlink.com 1.10,2013-10-11 00:11:00,
2013-10-10 20:26:00,59.6,51.0,30.09,ESE,115,0.0,-999.0,74,-99.99,,,0.00,weatherlink.com 1.10,2013-10-11 00:26:00,
2013-10-10 20:41:00,58.9,52.0,30.09,SE,145,0.0,-999.0,78,-99.99,,,0.00,weatherlink.com 1.10,2013-10-11 00:41:00,
2013-10-10 20:56:00,58.7,53.0,30.09,SSE,156,0.0,-999.0,80,-99.99,,,0.00,weatherlink.com 1.10,2013-10-11 00:56:00,
2013-10-10 21:11:00,58.3,53.0,30.09,East,90,0.0,-999.0,81,-99.99,,,0.00,weatherlink.com 1.10,2013-10-11 01:11:00,
2013-10-10 21:26:00,57.8,52.0,30.09,East,94,0.0,-999.0,82,-99.99,,,0.00,weatherlink.com 1.10,2013-10-11 01:26:00,
2013-10-10 21:41:00,57.4,52.0,30.09,SE,138,0.0,-999.0,83,-99.99,,,0.00,weatherlink.com 1.10,2013-10-11 01:41:00,
2013-10-10 21:56:00,56.9,52.0,30.09,West,264,0.0,-999.0,84,-99.99,,,0.00,weatherlink.com 1.10,2013-10-11 01:56:00,
2013-10-10 22:11:00,56.4,52.0,30.09,SE,125,0.0,-999.0,85,-99.99,,,0.00,weatherlink.com 1.10,2013-10-11 02:11:00,
2013-10-10 22:26:00,56.1,52.0,30.09,NE,34,0.0,-999.0,85,-99.99,,,0.00,weatherlink.com 1.10,2013-10-11 02:26:00,
2013-10-10 22:41:00,55.9,52.0,30.09,SSE,155,0.0,-999.0,85,-99.99,,,0.00,weatherlink.com 1.10,2013-10-11 02:41:00,
2013-10-10 22:56:00,55.7,51.0,30.09,NNE,26,0.0,-999.0,85,-99.99,,,0.00,weatherlink.com 1.10,2013-10-11 02:56:00,
2013-10-10 23:11:00,55.4,51.0,30.08,SE,130,0.0,-999.0,85,-99.99,,,0.00,weatherlink.com 1.10,2013-10-11 03:11:00,
2013-10-10 23:26:00,55.1,51.0,30.08,ESE,123,1.0,-999.0,86,-99.99,,,0.00,weatherlink.com 1.10,2013-10-11 03:26:00,
2013-10-10 23:41:00,55.0,51.0,30.08,South,184,2.0,-999.0,86,-99.99,,,0.00,weatherlink.com 1.10,2013-10-11 03:41:00,
2013-10-10 23:56:00,54.8,51.0,30.07,SSE,150,1.0,-999.0,86,-99.99,,,0.00,weatherlink.com 1.10,2013-10-11 03:56:00,